[[{"header":{"parameterUnit":"m.s-1","parameterCategory":1,"la1":30.2991,"la2":30.254,"lo1":-89.0895,"lo2":-89.0444,"dy":0.0017,"dx":0.0017,"nx":28,"ny":28,"refTime":"2023-08-25T21:00:00:Z","depth":0,"parameterNumber":2,"parameterNumberName":"U-component_of_WINDS"},"data":[0,0,0,0,0,0,0,0,0,0,0,0,0,0,0,0,0,0,0,0,0,0,0,0,0,0,0,0,0,0,0,0,0,0,0,0,0,0,0,0,0,0,0,0,0,0,0,0,0,0,0,0,0,0,0,0,0,0,2.1715,2.1716,0,2.1812,2.1813,2.1814,2.1798,2.1797,2.1795,2.1793,2.1897,2.1901,2.1905,0,0,0,0,0,0,0,0,0,0,0,0,0,2.1518,2.1522,2.1714,2.1716,2.1717,2.1812,2.1813,2.1815,2.1798,2.1796,2.1794,2.1792,2.1895,2.19,2.1905,0,0,0,0,0,0,0,0,0,0,0,0,0,2.1608,2.1523,2.1714,2.172,2.1722,2.1812,2.1813,2.1815,2.1799,2.1796,2.1794,2.1791,2.1893,2.19,2.1906,2.1997,0,0,2.1926,2.1929,0,0,0,0,0,0,0,0,2.1603,2.1616,2.1718,2.172,2.1722,2.179,2.1782,2.1876,2.18,2.177,2.1793,2.179,2.1863,2.1872,2.1896,2.2002,2.2006,2.1927,2.1931,2.1933,2.1935,0,0,0,0,0,0,0,2.1597,2.1611,2.1753,2.172,2.1722,2.1719,2.1729,2.18,2.183,2.1772,2.1771,2.1783,2.1864,2.189,2.1899,2.2008,2.1926,2.1932,2.1936,2.1939,2.2195,2.2197,0,0,0,0,0,0,2.1589,2.1606,2.175,2.1756,2.1655,2.1725,2.1736,2.1771,2.1829,2.1835,2.1785,2.1782,2.188,2.1891,2.1902,2.2013,2.1933,2.1939,2.1943,2.2192,2.2195,2.2198,0,0,0,0,0,0,2.1584,2.1601,2.1746,2.1681,2.1699,2.1731,2.177,2.1774,2.18,2.1839,2.1844,2.1806,2.1879,2.1893,2.1974,2.2016,2.1942,2.1948,2.2188,2.2193,2.2197,2.2235,0,0,0,0,0,0,2.1579,2.16,2.1634,2.1682,2.1703,2.1815,2.1773,2.1778,2.1811,2.1808,2.186,2.1866,2.1878,2.1964,2.198,2.2024,2.1953,2.2185,2.219,2.2195,2.223,2.224,2.2248,0,0,0,0,0,2.1572,2.1641,2.1636,2.1653,2.1746,2.1817,2.1829,2.1841,2.1814,2.1849,2.1874,2.1864,2.2009,2.1972,2.199,2.2037,2.2182,2.2189,2.2195,2.2226,2.2238,2.2248,0,0,0,0,0,0,2.1599,2.1648,2.1642,2.1729,2.1769,2.1814,2.1859,2.1853,2.1902,2.1897,2.1911,2.1923,2.2004,2.2029,2.1987,2.2128,2.2092,2.2102,2.2109,2.2121,2.213,2.2123,2.1959,0,0,0,0,0,2.1614,2.1667,2.1708,2.1781,2.1801,2.1827,2.1858,2.1864,2.1906,2.1923,2.1954,2.1997,2.2052,2.2088,2.2141,2.2234,2.2245,2.2275,2.2284,2.2291,2.23,2.2352,2.2365,2.222,2.222,2.222,0,0,2.1648,2.1681,2.1714,2.1787,2.1819,2.1874,2.1841,2.1901,2.1943,2.1933,2.201,2.2035,2.2083,2.2171,2.2211,2.2193,2.2343,2.23,2.2305,2.231,2.236,2.2374,2.2386,2.2224,2.2223,2.2223,0,0,2.1737,2.1768,2.1832,2.1864,2.1912,2.1929,2.1945,2.1991,2.2007,2.2085,2.2078,2.2129,2.2224,2.2259,2.2289,2.2393,2.2386,2.241,2.2459,2.2509,2.2521,2.2531,2.2568,2.2582,2.2419,2.2419,2.2419,0,2.1773,2.1855,2.1866,2.1927,2.196,2.1952,2.2018,2.2049,2.2113,2.2136,2.2116,2.2235,2.2267,2.2363,2.2388,2.2413,2.2432,2.2404,2.2518,2.2528,2.2538,2.2574,2.2588,2.2422,2.2422,2.2421,2.2421,0,2.1897,2.1955,2.2001,2.2062,2.21,2.2163,2.2184,2.2222,2.2224,2.2244,2.2324,2.2362,2.2423,2.2447,2.245,2.2543,2.2531,2.2515,2.2478,2.2554,2.2588,2.2602,2.2426,2.2425,2.2424,2.2423,0,0,2.2005,2.2071,2.2088,2.2115,2.2169,2.2214,2.2278,2.2336,2.2369,2.2413,2.2468,2.2548,2.2533,2.2568,2.2575,2.262,2.27,2.2598,2.2599,2.2615,2.2806,2.2818,2.2834,2.2696,2.2699,2.2701,2.2802,0,2.2099,2.221,2.2222,2.2321,2.2375,2.237,2.2426,2.2465,2.2485,2.2535,2.2558,2.2615,2.2591,2.2611,2.2655,2.2681,2.2739,2.2674,2.2748,2.275,2.2735,2.2852,2.2865,2.2959,2.2816,2.2818,2.282,0,2.2224,2.2271,2.2376,2.2422,2.2445,2.2495,2.255,2.2597,2.2643,2.2655,2.2693,2.2696,2.2763,2.2724,2.2818,2.2773,2.2805,2.2822,2.2826,2.2833,2.2789,2.2862,2.2989,2.3003,2.2841,2.2839,2.2837,0,2.2292,2.2382,2.2456,2.248,2.2536,2.2572,2.2597,2.264,2.2674,2.2723,2.2746,2.2803,2.2834,2.2879,2.2896,2.2867,2.2989,2.2952,2.3002,2.3002,2.3028,2.3026,2.3161,2.3048,2.3048,2.3048,2.3047,0,2.2395,2.246,2.2488,2.2533,2.2606,2.262,2.2692,2.2715,2.2754,2.2805,2.2805,2.2853,2.2874,2.2927,2.2941,2.3017,2.3031,2.3043,2.3046,2.3043,2.3042,2.3064,2.3058,2.3051,2.305,2.305,2.3049,0,2.2483,2.2504,2.2585,2.2632,2.2645,2.2697,2.2737,2.2783,2.2802,2.2868,2.2884,2.2916,2.2977,2.3,2.3075,2.3085,2.3173,2.3171,2.3157,2.3158,2.3207,2.3202,2.3361,2.3383,2.3255,2.3256,2.3257,0,2.2548,2.2597,2.2649,2.2683,2.2709,2.2764,2.28,2.2816,2.2853,2.2909,2.2948,2.3009,2.3059,2.3158,2.3189,2.3247,2.3246,2.3298,2.3255,2.3251,2.3248,2.3244,2.325,2.3306,2.3307,2.3308,2.3309,0,2.266,2.2669,2.2719,2.2774,2.2816,2.2861,2.2903,2.2932,2.2955,2.2997,2.3059,2.3098,2.3175,2.3236,2.3296,2.3324,2.3321,2.3322,2.3337,2.3334,2.3325,2.3331,2.3179,2.3319,2.3318,2.3317,2.3317,2.3316,2.2739,2.2782,2.2826,2.2883,2.2917,2.2957,2.3002,2.3028,2.308,2.3143,2.315,2.3218,2.3264,2.3343,2.3374,2.3428,2.3414,2.3435,2.3441,2.3446,2.345,2.3316,2.3439,2.3439,2.3439,2.3438,2.3438,0,2.2851,2.2879,2.2931,2.2991,2.3037,2.3029,2.3077,2.3115,2.3175,2.3217,2.3266,2.3339,2.3399,2.3434,2.3495,2.3532,2.3532,2.3547,2.3544,2.3551,2.3458,2.344,2.3546,2.3546,2.3546,2.3546,2.3546,2.3545,2.2915,2.2989,2.3003,2.3094,2.3122,2.3188,2.3216,2.3254,2.3288,2.3369,2.3418,2.3441,2.3481,2.3545,2.36,2.3609,2.3632,2.3648,2.3656,2.3569,2.3558,2.3547,2.3529,2.3653,2.3653,2.3744,2.3745,2.3746]},{"header":{"parameterUnit":"m.s-1","parameterCategory":1,"la1":30.2991,"la2":30.254,"lo1":-89.0895,"lo2":-89.0444,"dy":0.0017,"dx":0.0017,"nx":28,"ny":28,"refTime":"2023-08-25T21:00:00:Z","depth":0,"parameterNumber":3,"parameterNumberName":"V-component_of_WINDS"},"data":[0,0,0,0,0,0,0,0,0,0,0,0,0,0,0,0,0,0,0,0,0,0,0,0,0,0,0,0,0,0,0,0,0,0,0,0,0,0,0,0,0,0,0,0,0,0,0,0,0,0,0,0,0,0,0,0,0,0,2.4475,2.4474,0,2.4435,2.4434,2.4434,2.4359,2.4358,2.4356,2.4355,2.4315,2.4315,2.4315,0,0,0,0,0,0,0,0,0,0,0,0,0,2.4488,2.4488,2.4475,2.4474,2.4474,2.4435,2.4434,2.4434,2.4359,2.4358,2.4356,2.4354,2.4315,2.4315,2.4315,0,0,0,0,0,0,0,0,0,0,0,0,0,2.4469,2.4488,2.4475,2.4432,2.4428,2.4435,2.4434,2.4434,2.436,2.4358,2.4355,2.4353,2.4314,2.4315,2.4315,2.4361,0,0,2.4317,2.4317,0,0,0,0,0,0,0,0,2.447,2.4468,2.4439,2.4435,2.443,2.44,2.4424,2.4409,2.436,2.4386,2.4355,2.4352,2.4345,2.4343,2.434,2.4359,2.4358,2.4317,2.4317,2.4317,2.4317,0,0,0,0,0,0,0,2.4471,2.4469,2.4459,2.4438,2.4433,2.4415,2.441,2.4421,2.4378,2.4383,2.4378,2.4374,2.4342,2.434,2.4338,2.4357,2.4317,2.4317,2.4317,2.4317,2.4414,2.4416,0,0,0,0,0,0,2.4479,2.4471,2.446,2.4458,2.4445,2.4417,2.4411,2.4412,2.4378,2.437,2.4376,2.4371,2.434,2.4338,2.4337,2.4389,2.4317,2.4317,2.4318,2.4412,2.4414,2.4417,0,0,0,0,0,0,2.4479,2.4478,2.4462,2.4463,2.4459,2.4419,2.442,2.4412,2.441,2.4372,2.4364,2.4381,2.4338,2.4336,2.4356,2.4387,2.4318,2.4318,2.4409,2.4412,2.4416,2.4494,0,0,0,0,0,0,2.448,2.4479,2.4496,2.4464,2.446,2.4482,2.4422,2.4413,2.441,2.4403,2.4375,2.4368,2.4336,2.4356,2.4356,2.4386,2.4318,2.4406,2.441,2.4414,2.4489,2.45,2.4509,0,0,0,0,0,2.4481,2.4519,2.4497,2.4496,2.448,2.4483,2.4481,2.4443,2.4413,2.443,2.4406,2.4369,2.4383,2.4358,2.4359,2.4389,2.4404,2.4409,2.4414,2.4484,2.4498,2.4509,0,0,0,0,0,0,2.4556,2.4514,2.4489,2.4518,2.4505,2.4471,2.4491,2.4459,2.4454,2.4448,2.4401,2.4396,2.4422,2.4407,2.438,2.4432,2.4388,2.4393,2.4441,2.4454,2.4464,2.4467,2.4319,0,0,0,0,0,2.4576,2.4582,2.4545,2.4575,2.457,2.4532,2.4532,2.4504,2.4489,2.4483,2.446,2.4447,2.4448,2.445,2.4449,2.4486,2.448,2.4507,2.4518,2.4526,2.4532,2.4551,2.4564,2.4434,2.4434,2.4434,0,0,2.4617,2.4595,2.4602,2.459,2.4576,2.4584,2.4527,2.4538,2.4544,2.4484,2.4502,2.4485,2.4467,2.4496,2.4508,2.4485,2.4566,2.4533,2.454,2.4541,2.4558,2.457,2.4581,2.4437,2.4437,2.4436,0,0,2.4696,2.468,2.4703,2.4691,2.4671,2.4646,2.4652,2.4623,2.4609,2.4626,2.4582,2.4589,2.4592,2.4581,2.4576,2.4654,2.462,2.4655,2.4709,2.4729,2.4739,2.4748,2.4777,2.4787,2.466,2.466,2.466,0,2.475,2.476,2.4719,2.4733,2.473,2.4676,2.47,2.469,2.4672,2.4671,2.4645,2.4649,2.4633,2.4659,2.4678,2.4676,2.4681,2.4657,2.4741,2.4749,2.4757,2.4784,2.4794,2.4665,2.4664,2.4664,2.4663,0,2.4828,2.4836,2.4857,2.484,2.4839,2.4858,2.4821,2.4824,2.4797,2.4775,2.4794,2.4773,2.4768,2.4772,2.4745,2.4795,2.4782,2.4749,2.4704,2.4775,2.4799,2.4809,2.4671,2.4669,2.4668,2.4667,0,0,2.4952,2.4914,2.4923,2.4915,2.489,2.4896,2.4913,2.4907,2.4912,2.4901,2.4915,2.492,2.489,2.4884,2.4856,2.4874,2.4938,2.4839,2.4838,2.4859,2.4993,2.5018,2.503,2.4915,2.4917,2.4918,2.4995,0,2.5027,2.5053,2.5018,2.5052,2.506,2.501,2.5025,2.5012,2.4992,2.4996,2.4973,2.4978,2.4938,2.4934,2.4949,2.4927,2.4964,2.4921,2.4928,2.4929,2.4935,2.5043,2.5069,2.5142,2.5004,2.5005,2.5006,0,2.5116,2.5111,2.5146,2.512,2.5122,2.5136,2.5129,2.5133,2.5118,2.5102,2.5097,2.5064,2.5079,2.5036,2.5057,2.5028,2.5029,2.5019,2.5021,2.5021,2.4972,2.5046,2.5164,2.5175,2.5021,2.502,2.5019,0,2.5205,2.5206,2.5227,2.5222,2.5192,2.5204,2.5192,2.5174,2.5174,2.5168,2.5168,2.5164,2.5162,2.516,2.5127,2.5098,2.5154,2.5106,2.5142,2.5143,2.5156,2.5155,2.5276,2.5156,2.5156,2.5155,2.5155,0,2.5292,2.5316,2.5267,2.528,2.5306,2.5265,2.5292,2.5275,2.526,2.527,2.5227,2.5237,2.5193,2.5199,2.5173,2.5196,2.5195,2.5183,2.5176,2.5187,2.5189,2.5188,2.5182,2.5158,2.5158,2.5157,2.5156,0,2.5395,2.5363,2.5383,2.5354,2.5347,2.5367,2.5342,2.5354,2.5332,2.5345,2.5346,2.5311,2.5316,2.5283,2.5281,2.5264,2.5299,2.5283,2.5305,2.53,2.5337,2.5335,2.5462,2.5477,2.5347,2.5348,2.5349,0,2.5452,2.547,2.5442,2.5446,2.5436,2.5442,2.5442,2.5403,2.5405,2.5389,2.5403,2.5405,2.5404,2.5414,2.5389,2.5388,2.5372,2.5416,2.5371,2.5383,2.5374,2.5373,2.5375,2.5426,2.5428,2.5429,2.543,0,2.5558,2.5542,2.5543,2.5539,2.554,2.5535,2.5528,2.5533,2.5491,2.5495,2.55,2.5499,2.5498,2.5501,2.5495,2.5483,2.5451,2.5445,2.5453,2.5465,2.5477,2.5472,2.5331,2.5442,2.5441,2.544,2.5439,2.5439,2.564,2.5654,2.5638,2.5641,2.5631,2.5625,2.5635,2.5614,2.5617,2.5614,2.5591,2.56,2.5585,2.5574,2.5566,2.5573,2.5552,2.5564,2.5567,2.557,2.5578,2.5476,2.5572,2.5572,2.5571,2.5571,2.5571,0,2.5745,2.5732,2.5735,2.5726,2.5729,2.5698,2.5688,2.5693,2.5702,2.5691,2.5691,2.5697,2.57,2.5675,2.5675,2.5685,2.567,2.5687,2.5686,2.5684,2.5596,2.559,2.5699,2.5699,2.5699,2.5699,2.5699,2.5699,2.58,2.5821,2.5804,2.5821,2.5808,2.5816,2.5814,2.5809,2.58,2.5809,2.5811,2.5795,2.5779,2.5777,2.5779,2.5771,2.5774,2.5795,2.5783,2.5702,2.569,2.5678,2.5671,2.5796,2.5796,2.587,2.5871,2.5872]}]]